Regional Weather Roundup
Issued by NWS Newport/Morehead, NC

Current Version | Previous Version | Graphics & Text | Print | Product List | Glossary Off
Versions: 1 2 3 4 5 6 7 8 9 10 11 12 13 14 15 16 17 18 19 20 21 22 23 24 25 26 27 28 29 30 31 32 33 34 35 36 37 38 39 40 41 42 43 44 45 46 47 48 49 50

278
ASUS42 KMHX 221124
RWRMHX
WEATHER ROUNDUP FOR EASTERN NORTH CAROLINA
NATIONAL WEATHER SERVICE NEWPORT/MOREHEAD CITY NC
700 AM EDT FRI MAY 22 2015

NOTE: "FAIR" INDICATES FEW OR NO CLOUDS BELOW 12,000 FEET
WITH NO SIGNIFICANT WEATHER AND/OR OBSTRUCTIONS TO VISIBILITY

NCZ015>017-031-032-045>047-102-103-221200-
NORTH COAST

CITY           SKY/WX    TMP DP  RH WIND       PRES   REMARKS
EDENTON        SUNNY     56  52  84 N8        30.08S
ELIZABETH CITY MOSUNNY   54  51  90 NW9       30.07R
KITTY HAWK     MOSUNNY   57  53  85 NW6       30.05R
MANTEO         MOSUNNY   58  51  78 N8G16     30.07R

$$

NCZ045>047-081-094-103-104-221200-
CENTRAL COAST

CITY           SKY/WX    TMP DP  RH WIND       PRES   REMARKS
FRISCO         CLOUDY    60  52  74 N9        30.05R
SWANQUARTER      N/A     59 N/A N/A N7G15     30.03S

$$

NCZ095-097-098-100-101-221200-
SOUTHERN COAST

CITY           SKY/WX    TMP DP  RH WIND       PRES   REMARKS
BEAUFORT       CLOUDY    60  56  86 N9        30.07R
CEDAR ISLAND     N/A     63 N/A N/A N23G31    30.12R
JACKSONVILLE   CLOUDY    60  55  83 N10       30.09R
PINEY ISLAND   PTSUNNY  N/A N/A N/A N15       30.06R
WILMINGTON     CLOUDY    60  56  86 N9        30.09R


$$

NCZ011>013-027>030-043-044-078>080-089-090>093-098-221200-
COASTAL PLAIN

CITY           SKY/WX    TMP DP  RH WIND       PRES   REMARKS
AHOSKIE          N/A     53  51  93 CALM      30.09R
CLINTON        PTCLDY    60  54  83 N6        30.11R
ELIZABETHTOWN  MOCLDY    60  53  78 CALM      30.12R
GOLDSBORO      CLOUDY    59  54  82 N7        30.09R
GREENVILLE     MOSUNNY   55  54  94 N3        30.11R
HAVELOCK       PTSUNNY   60  54  80 N15       30.09R
KENANSVILLE    CLOUDY    59  54  83 N6        30.11R
KINSTON        MOSUNNY   57  55  94 N6        30.10R
NEW BERN       CLOUDY    59  54  83 N9        30.10R
RICHLANDS      CLOUDY    59  52  77 N5        30.11R
ROCKY MOUNT    MOSUNNY   57  54  89 N7        30.10R
WASHINGTON       N/A    N/A N/A N/A CALM      30.11R
WHITEVILLE     CLOUDY    62  55  78 N5        30.10R

$$

AMZ130-135-150-152-154-156-158-170-250-252-270-ANZ085-086-088-633-658-670-221200-
MARINE OBSERVATIONS

STATION/POSITION TIME  TEMP    WIND        PRES    WAVE   SWELL
                       AIR SEA DIR/SP/G            HT/PER HT/PER
                 (UTC) (F)     (DEG/KT/KT) (MB)    (FT/S) (FT/S)
CHESAPEAKE LIGHT 1100   58     330/ 26/ 28 1017.5
64 E VA BEACH    1050   59 60  330/ 17/ 19 1015.8    7/ 6   2/11
DUCK             1100   57 66  310/ 13/ 16 1016.8
2 E DUCK         1011      64                N/A     5/ 7
OREGON INLET     1100   58 68  330/ 11/ 16 1017.8
13E OREGON INLT  1100      60                N/A     7/ 7
HATTERAS CG      1100   62 72  350/ 19/ 21 1017.0
DIAMOND BUOY     1050   64 75  340/ 16/ 21 1017.0    5/ 7   2/14
CAPE LOOKOUT     1100   61     350/ 13/ 16 1017.8
BEAUFORT LAB     1100   61 74   10/ 12/ 16 1017.3
27 SE WRIGHTSVLE 1100   62 77   40/ 17/ 23   N/A
5 SE WRIGHTSVLE  1008   64 76   20/ 16/ 21 1017.3
225 S CAPE HAT   1050   75 74  240/ 10/ 12 1015.8    4/ 6   3/ 6
41 SE CHARLESTON 1050   72 76   30/ 23/ 27 1015.7    5/ 5   2/ 9

$$



USA.gov is the U.S. government's official web portal to all federal, state and local government web resources and services.